Location: Karcze
(52.0945°N, 22.4786°E)
Time: 00:10:56
(UTC+00:00)

A-11 Canister half - Pass Details

Date: 08 August 2021
Orbit: 1515 x 1685 km, 47.2° (Epoch: 19 September)

Event Time Altitude Azimuth Distance (km) Brightness Sun altitude
Rises 16:16:02 0° 262° (W) 4,791 13.2 15.5°
Reaches altitude 10° 16:19:06 10° 260° (W) 3,828 12.9 15.0°
Maximum altitude 16:28:48 68° 180° (S) 1,757 9.5 13.6°
Drops below altitude 10° 16:38:47 10° 101° (E) 3,939 10.6 12.0°
Sets 16:41:59 0° 99° (E) 4,935 11.0 11.6°
